| time (UTC) | temp F | wind direction | speed MPH | gust MPH | rain 1hr in | rain 24hr in | rain mn in | humidity % | barometer mb |
| 20260503235428 | 59 | 343 | 1.0 | 1.0 | 0.00 | 0.00 | 0.00 | 37 | 1010.5 |
| 20260503234925 | 59 | 265 | 3.0 | 3.0 | 0.00 | 0.00 | 0.00 | 35 | 1010.2 |
| 20260503234423 | 59 | 266 | 2.0 | 2.0 | 0.00 | 0.00 | 0.00 | 33 | 1010.0 |
| 20260503233921 | 59 | 293 | 1.0 | 1.0 | 0.00 | 0.00 | 0.00 | 33 | 1010.2 |
| 20260503233417 | 60 | 267 | 1.0 | 2.0 | 0.00 | 0.00 | 0.00 | 33 | 1010.1 |
| 20260503232913 | 60 | 262 | 4.0 | 6.0 | 0.00 | 0.00 | 0.00 | 32 | 1010.0 |
| 20260503232411 | 60 | 288 | 4.0 | 6.0 | 0.00 | 0.00 | 0.00 | 33 | 1010.0 |
| 20260503231908 | 60 | 217 | 3.0 | 4.0 | 0.00 | 0.00 | 0.00 | 32 | 1009.8 |
| 20260503231405 | 60 | 292 | 2.0 | 3.0 | 0.00 | 0.00 | 0.00 | 33 | 1009.8 |
| 20260503230901 | 60 | 258 | 5.0 | 6.0 | 0.00 | 0.00 | 0.00 | 32 | 1009.9 |
| 20260503230358 | 60 | 259 | 2.0 | 3.0 | 0.00 | 0.00 | 0.00 | 33 | 1009.7 |
| 20260503225856 | 60 | 263 | 3.0 | 4.0 | 0.00 | 0.00 | 0.00 | 30 | 1010.0 |
| 20260503225352 | 60 | 236 | 3.0 | 6.0 | 0.00 | 0.00 | 0.00 | 30 | 1009.7 |
| 20260503224848 | 60 | 259 | 2.0 | 2.0 | 0.00 | 0.00 | 0.00 | 31 | 1009.6 |
| 20260503224345 | 61 | 250 | 5.0 | 7.0 | 0.00 | 0.00 | 0.00 | 30 | 1009.8 |
| 20260503223843 | 61 | 278 | 4.0 | 4.0 | 0.00 | 0.00 | 0.00 | 29 | 1009.9 |
| 20260503223341 | 62 | 276 | 9.0 | 11.0 | 0.00 | 0.00 | 0.00 | 28 | 1009.7 |
| 20260503222836 | 61 | 290 | 3.0 | 4.0 | 0.00 | 0.00 | 0.00 | 29 | 1009.9 |
| 20260503222335 | 60 | 322 | 4.0 | 8.0 | 0.00 | 0.00 | 0.00 | 28 | 1009.4 |
| 20260503221832 | 60 | 249 | 4.0 | 7.0 | 0.00 | 0.00 | 0.00 | 29 | 1009.5 |
| 20260503221331 | 60 | 313 | 4.0 | 4.0 | 0.00 | 0.00 | 0.00 | 29 | 1009.7 |
| 20260503220826 | 61 | 287 | 4.0 | 6.0 | 0.00 | 0.00 | 0.00 | 28 | 1009.6 |
| 20260503220324 | 61 | 309 | 4.0 | 4.0 | 0.00 | 0.00 | 0.00 | 28 | 1009.7 |
| 20260503215820 | 60 | 170 | 5.0 | 6.0 | 0.00 | 0.00 | 0.00 | 27 | 1009.8 |
| 20260503215318 | 60 | 152 | 3.0 | 4.0 | 0.00 | 0.00 | 0.00 | 29 | 1009.9 |
| 20260503214815 | 60 | 250 | 6.0 | 8.0 | 0.00 | 0.00 | 0.00 | 28 | 1009.8 |
| 20260503214312 | 60 | 234 | 8.0 | 9.0 | 0.00 | 0.00 | 0.00 | 29 | 1009.8 |
| 20260503213810 | 60 | 282 | 7.0 | 9.0 | 0.00 | 0.00 | 0.00 | 29 | 1009.5 |
| 20260503213307 | 60 | 249 | 8.0 | 9.0 | 0.00 | 0.00 | 0.00 | 29 | 1009.9 |
| 20260503212758 | 60 | 243 | 3.0 | 4.0 | 0.00 | 0.00 | 0.00 | 29 | 1009.7 |
| 20260503212256 | 60 | 266 | 4.0 | 6.0 | 0.00 | 0.00 | 0.00 | 32 | 1009.4 |
| 20260503211753 | 60 | 281 | 5.0 | 6.0 | 0.00 | 0.00 | 0.00 | 29 | 1009.6 |
| 20260503211250 | 60 | 276 | 5.0 | 8.0 | 0.00 | 0.00 | 0.00 | 31 | 1009.4 |
| 20260503210744 | 60 | 250 | 7.0 | 9.0 | 0.00 | 0.00 | 0.00 | 30 | 1009.6 |
| 20260503210242 | 59 | 300 | 4.0 | 7.0 | 0.00 | 0.00 | 0.00 | 31 | 1009.7 |
| 20260503205743 | 60 | 272 | 5.0 | 6.0 | 0.00 | 0.00 | 0.00 | 30 | 1009.4 |
| 20260503205239 | 60 | 283 | 6.0 | 7.0 | 0.00 | 0.00 | 0.00 | 30 | 1009.5 |
| 20260503204736 | 60 | 237 | 9.0 | 11.0 | 0.00 | 0.00 | 0.00 | 31 | 1009.7 |
| 20260503204233 | 59 | 174 | 5.0 | 7.0 | 0.00 | 0.00 | 0.00 | 32 | 1009.3 |
| 20260503203731 | 60 | 259 | 4.0 | 6.0 | 0.00 | 0.00 | 0.00 | 29 | 1009.5 |
| 20260503203228 | 59 | 275 | 9.0 | 11.0 | 0.00 | 0.00 | 0.00 | 30 | 1009.7 |
| 20260503202725 | 60 | 227 | 11.0 | 15.0 | 0.00 | 0.00 | 0.00 | 31 | 1009.8 |
| 20260503202223 | 59 | 207 | 5.0 | 6.0 | 0.00 | 0.00 | 0.00 | 31 | 1009.6 |
| 20260503201721 | 59 | 151 | 6.0 | 9.0 | 0.00 | 0.00 | 0.00 | 32 | 1009.6 |
| 20260503201218 | 59 | 256 | 6.0 | 8.0 | 0.00 | 0.00 | 0.00 | 31 | 1009.6 |
| 20260503200714 | 60 | 241 | 6.0 | 8.0 | 0.00 | 0.00 | 0.00 | 31 | 1009.9 |
| 20260503200211 | 59 | 254 | 2.0 | 2.0 | 0.00 | 0.00 | 0.00 | 32 | 1009.8 |
| 20260503195707 | 59 | 275 | 2.0 | 3.0 | 0.00 | 0.00 | 0.00 | 33 | 1009.7 |
| 20260503195205 | 58 | 268 | 5.0 | 7.0 | 0.00 | 0.00 | 0.00 | 32 | 1009.9 |
| 20260503194701 | 58 | 259 | 5.0 | 6.0 | 0.00 | 0.00 | 0.00 | 33 | 1009.9 |
| 20260503194157 | 59 | 277 | 5.0 | 8.0 | 0.00 | 0.00 | 0.00 | 32 | 1009.9 |
| 20260503193654 | 57 | 258 | 4.0 | 6.0 | 0.00 | 0.00 | 0.00 | 33 | 1010.1 |
| 20260503193149 | 58 | 312 | 7.0 | 9.0 | 0.00 | 0.00 | 0.00 | 33 | 1009.9 |
| 20260503192645 | 58 | 310 | 5.0 | 8.0 | 0.00 | 0.00 | 0.00 | 32 | 1009.9 |
| 20260503192141 | 58 | 244 | 8.0 | 9.0 | 0.00 | 0.00 | 0.00 | 33 | 1010.1 |
| 20260503191638 | 58 | 216 | 4.0 | 7.0 | 0.00 | 0.00 | 0.00 | 33 | 1010.1 |
| 20260503191135 | 57 | 199 | 6.0 | 8.0 | 0.00 | 0.00 | 0.00 | 34 | 1010.1 |
| 20260503190632 | 57 | 233 | 10.0 | 13.0 | 0.00 | 0.00 | 0.00 | 35 | 1010.1 |
| 20260503190129 | 58 | 235 | 5.0 | 7.0 | 0.00 | 0.00 | 0.00 | 34 | 1010.2 |
| 20260503185625 | 58 | 259 | 4.0 | 6.0 | 0.00 | 0.00 | 0.00 | 34 | 1010.1 |
| 20260503185120 | 56 | 215 | 7.0 | 14.0 | 0.00 | 0.00 | 0.00 | 35 | 1010.2 |
| 20260503184610 | 55 | 243 | 6.0 | 8.0 | 0.00 | 0.00 | 0.00 | 37 | 1010.4 |
| 20260503184107 | 56 | 261 | 6.0 | 8.0 | 0.00 | 0.00 | 0.00 | 36 | 1010.5 |
| 20260503183603 | 56 | 200 | 5.0 | 6.0 | 0.00 | 0.00 | 0.00 | 36 | 1010.6 |
| 20260503183101 | 55 | 286 | 3.0 | 3.0 | 0.00 | 0.00 | 0.00 | 37 | 1010.6 |
| 20260503182559 | 54 | 253 | 6.0 | 8.0 | 0.00 | 0.00 | 0.00 | 38 | 1010.8 |
| 20260503182057 | 56 | 234 | 7.0 | 9.0 | 0.00 | 0.00 | 0.00 | 36 | 1010.5 |
| 20260503181554 | 55 | 274 | 4.0 | 6.0 | 0.00 | 0.00 | 0.00 | 38 | 1010.5 |
| 20260503181050 | 54 | 248 | 6.0 | 9.0 | 0.00 | 0.00 | 0.00 | 39 | 1010.9 |
| 20260503180547 | 55 | 259 | 5.0 | 7.0 | 0.00 | 0.00 | 0.00 | 38 | 1010.5 |
| 20260503180045 | 54 | 295 | 5.0 | 7.0 | 0.00 | 0.00 | 0.00 | 38 | 1010.7 |
| 20260503175542 | 55 | 296 | 7.0 | 9.0 | 0.00 | 0.00 | 0.00 | 39 | 1010.7 |
| 20260503175039 | 54 | 275 | 6.0 | 10.0 | 0.00 | 0.00 | 0.00 | 40 | 1010.7 |
| 20260503174536 | 54 | 316 | 4.0 | 6.0 | 0.00 | 0.00 | 0.00 | 39 | 1010.6 |
| 20260503174032 | 53 | 280 | 3.0 | 3.0 | 0.00 | 0.00 | 0.00 | 41 | 1010.4 |
| 20260503173527 | 54 | 229 | 7.0 | 13.0 | 0.00 | 0.00 | 0.00 | 41 | 1010.7 |
| 20260503173024 | 53 | 218 | 6.0 | 9.0 | 0.00 | 0.00 | 0.00 | 40 | 1010.6 |
| 20260503172522 | 53 | 239 | 6.0 | 8.0 | 0.00 | 0.00 | 0.00 | 40 | 1010.6 |
| 20260503172018 | 53 | 212 | 6.0 | 7.0 | 0.00 | 0.00 | 0.00 | 41 | 1010.7 |
| 20260503171515 | 53 | 244 | 4.0 | 7.0 | 0.00 | 0.00 | 0.00 | 40 | 1010.8 |
| 20260503171012 | 53 | 260 | 5.0 | 6.0 | 0.00 | 0.00 | 0.00 | 40 | 1010.7 |
| 20260503170508 | 53 | 262 | 4.0 | 6.0 | 0.00 | 0.00 | 0.00 | 41 | 1010.8 |
| 20260503150901 | 52 | 285 | 2.0 | 2.0 | 0.00 | 0.00 | 0.00 | 40 | 1011.2 |
| 20260503150357 | 51 | 295 | 4.0 | 6.0 | 0.00 | 0.00 | 0.00 | 40 | 1011.0 |
| 20260503131250 | 51 | 238 | 4.0 | 6.0 | 0.00 | 0.00 | 0.00 | 50 | 1011.4 |
| 20260503130748 | 50 | 299 | 2.0 | 3.0 | 0.00 | 0.00 | 0.00 | 52 | 1011.3 |
| 20260503130245 | 49 | 278 | 3.0 | 3.0 | 0.00 | 0.00 | 0.00 | 52 | 1011.5 |
| 20260503120211 | 47 | 251 | 4.0 | 6.0 | 0.00 | 0.00 | 0.00 | 54 | 1011.1 |
| 20260503110639 | 46 | 267 | 7.0 | 9.0 | 0.00 | 0.00 | 0.00 | 57 | 1010.6 |
| 20260503110136 | 45 | 318 | 3.0 | 3.0 | 0.00 | 0.00 | 0.00 | 58 | 1010.8 |
| 20260503081446 | 48 | 297 | 7.0 | 9.0 | 0.00 | 0.00 | 0.00 | 51 | 1009.4 |
| 20260503080943 | 48 | 299 | 2.0 | 3.0 | 0.00 | 0.00 | 0.00 | 52 | 1009.5 |
| 20260503080439 | 48 | 294 | 2.0 | 2.0 | 0.00 | 0.00 | 0.00 | 52 | 1009.5 |
| 20260503072910 | 49 | 271 | 3.0 | 4.0 | 0.00 | 0.00 | 0.00 | 51 | 1009.5 |
| 20260503072408 | 49 | 295 | 2.0 | 3.0 | 0.00 | 0.00 | 0.00 | 50 | 1009.6 |
| 20260503071904 | 49 | 293 | 4.0 | 6.0 | 0.00 | 0.00 | 0.00 | 49 | 1009.3 |
| 20260503071401 | 49 | 293 | 4.0 | 4.0 | 0.00 | 0.00 | 0.00 | 49 | 1009.3 |
| 20260503070856 | 49 | 258 | 5.0 | 7.0 | 0.00 | 0.00 | 0.00 | 49 | 1009.4 |
| 20260503070349 | 49 | 286 | 5.0 | 6.0 | 0.00 | 0.00 | 0.00 | 48 | 1009.4 |
| 20260503060309 | 51 | 296 | 2.0 | 3.0 | 0.00 | 0.00 | 0.00 | 47 | 1009.6 |
| 20260503054756 | 51 | 295 | 2.0 | 2.0 | 0.00 | 0.00 | 0.00 | 46 | 1009.6 |
| 20260503054252 | 51 | 296 | 4.0 | 4.0 | 0.00 | 0.00 | 0.00 | 44 | 1009.7 |
| 20260503053749 | 51 | 296 | 2.0 | 2.0 | 0.00 | 0.00 | 0.00 | 46 | 1009.6 |
| 20260503053243 | 52 | 304 | 3.0 | 4.0 | 0.00 | 0.00 | 0.00 | 46 | 1009.7 |
| 20260503052738 | 52 | 298 | 1.0 | 1.0 | 0.00 | 0.00 | 0.00 | 47 | 1009.6 |
| 20260503052236 | 52 | 294 | 1.0 | 1.0 | 0.00 | 0.00 | 0.00 | 46 | 1009.8 |
| 20260503051730 | 52 | 301 | 3.0 | 3.0 | 0.00 | 0.00 | 0.00 | 46 | 1010.0 |
| 20260503051228 | 52 | 305 | 3.0 | 4.0 | 0.00 | 0.00 | 0.00 | 45 | 1010.0 |
| 20260503050725 | 52 | 298 | 2.0 | 2.0 | 0.00 | 0.00 | 0.00 | 43 | 1009.7 |
| 20260503050221 | 52 | 302 | 0.0 | 1.0 | 0.00 | 0.00 | 0.00 | 43 | 1010.0 |
| 20260503045719 | 52 | 281 | 3.0 | 3.0 | 0.00 | 0.00 | 0.00 | 42 | 1010.0 |
| 20260503045216 | 52 | 319 | 2.0 | 2.0 | 0.00 | 0.00 | 0.00 | 41 | 1010.3 |
| 20260503044713 | 53 | 310 | 1.0 | 1.0 | 0.00 | 0.00 | 0.00 | 42 | 1009.9 |
| 20260503044210 | 53 | 289 | 2.0 | 3.0 | 0.00 | 0.00 | 0.00 | 40 | 1010.1 |
| 20260503043707 | 53 | 311 | 2.0 | 3.0 | 0.00 | 0.00 | 0.00 | 41 | 1010.2 |
| 20260503043205 | 53 | 312 | 1.0 | 2.0 | 0.00 | 0.00 | 0.00 | 40 | 1010.0 |
| 20260503042700 | 53 | 294 | 4.0 | 6.0 | 0.00 | 0.00 | 0.00 | 40 | 1010.0 |
| 20260503042156 | 53 | 313 | 1.0 | 2.0 | 0.00 | 0.00 | 0.00 | 40 | 1010.1 |
| 20260503041653 | 53 | 330 | 2.0 | 2.0 | 0.00 | 0.00 | 0.00 | 41 | 1010.3 |
| 20260503041150 | 53 | 300 | 2.0 | 2.0 | 0.00 | 0.00 | 0.00 | 40 | 1010.0 |
| 20260503040648 | 53 | 278 | 4.0 | 4.0 | 0.00 | 0.00 | 0.00 | 39 | 1010.2 |
| 20260503040146 | 53 | 279 | 3.0 | 6.0 | 0.00 | 0.00 | 0.00 | 39 | 1010.2 |
| 20260503035642 | 53 | 280 | 3.0 | 4.0 | 0.00 | 0.00 | 0.00 | 38 | 1010.1 |
| 20260503035139 | 54 | 318 | 2.0 | 3.0 | 0.00 | 0.00 | 0.00 | 39 | 1010.1 |
| 20260503034637 | 54 | 272 | 3.0 | 3.0 | 0.00 | 0.00 | 0.00 | 39 | 1010.2 |
| 20260503034134 | 54 | 303 | 2.0 | 2.0 | 0.00 | 0.00 | 0.00 | 39 | 1010.2 |
| 20260503033631 | 54 | 327 | 5.0 | 7.0 | 0.00 | 0.00 | 0.00 | 38 | 1010.2 |
| 20260503033128 | 54 | 245 | 4.0 | 6.0 | 0.00 | 0.00 | 0.00 | 38 | 1010.1 |
| 20260503032627 | 54 | 308 | 4.0 | 4.0 | 0.00 | 0.00 | 0.00 | 38 | 1010.1 |
| 20260503032125 | 54 | 300 | 2.0 | 2.0 | 0.00 | 0.00 | 0.00 | 38 | 1009.9 |
| 20260503031622 | 54 | 290 | 2.0 | 2.0 | 0.00 | 0.00 | 0.00 | 38 | 1010.2 |
| 20260503031119 | 54 | 292 | 3.0 | 4.0 | 0.00 | 0.00 | 0.00 | 37 | 1010.3 |
| 20260503030615 | 54 | 295 | 6.0 | 8.0 | 0.00 | 0.00 | 0.00 | 36 | 1010.2 |
| 20260503030112 | 55 | 266 | 4.0 | 4.0 | 0.00 | 0.00 | 0.00 | 36 | 1010.1 |
| 20260503025609 | 55 | 299 | 3.0 | 4.0 | 0.00 | 0.00 | 0.00 | 36 | 1010.2 |
| 20260503025107 | 55 | 309 | 4.0 | 6.0 | 0.00 | 0.00 | 0.00 | 36 | 1010.1 |
| 20260503024603 | 55 | 313 | 2.0 | 3.0 | 0.00 | 0.00 | 0.00 | 36 | 1010.3 |
| 20260503024100 | 55 | 294 | 3.0 | 3.0 | 0.00 | 0.00 | 0.00 | 37 | 1010.0 |
| 20260503023557 | 55 | 294 | 1.0 | 2.0 | 0.00 | 0.00 | 0.00 | 38 | 1010.3 |
| 20260503023054 | 55 | 280 | 1.0 | 1.0 | 0.00 | 0.00 | 0.00 | 38 | 1010.2 |
| 20260503022550 | 55 | 295 | 1.0 | 2.0 | 0.00 | 0.00 | 0.00 | 39 | 1010.3 |
| 20260503022045 | 55 | 319 | 2.0 | 3.0 | 0.00 | 0.00 | 0.00 | 37 | 1010.3 |
| 20260503021542 | 55 | 298 | 2.0 | 3.0 | 0.00 | 0.00 | 0.00 | 37 | 1010.2 |
| 20260503021039 | 55 | 307 | 3.0 | 4.0 | 0.00 | 0.00 | 0.00 | 37 | 1010.3 |
| 20260503020536 | 55 | 299 | 3.0 | 3.0 | 0.00 | 0.00 | 0.00 | 38 | 1010.3 |
| 20260503020033 | 55 | 328 | 2.0 | 3.0 | 0.00 | 0.00 | 0.00 | 38 | 1010.2 |
| 20260503015529 | 55 | 306 | 2.0 | 3.0 | 0.00 | 0.00 | 0.00 | 37 | 1010.4 |
| 20260503015027 | 55 | 330 | 3.0 | 4.0 | 0.00 | 0.00 | 0.00 | 37 | 1010.4 |
| 20260503014523 | 56 | 311 | 4.0 | 4.0 | 0.00 | 0.00 | 0.00 | 37 | 1010.5 |
| 20260503014021 | 56 | 300 | 4.0 | 4.0 | 0.00 | 0.00 | 0.00 | 37 | 1010.5 |
| 20260503013518 | 56 | 294 | 5.0 | 7.0 | 0.00 | 0.00 | 0.00 | 37 | 1010.2 |
| 20260503013016 | 56 | 256 | 4.0 | 4.0 | 0.00 | 0.00 | 0.00 | 37 | 1010.2 |
| 20260503012513 | 56 | 280 | 5.0 | 8.0 | 0.00 | 0.00 | 0.00 | 38 | 1010.1 |
| 20260503012009 | 56 | 290 | 1.0 | 2.0 | 0.00 | 0.00 | 0.00 | 38 | 1010.2 |
| 20260503011506 | 56 | 283 | 2.0 | 2.0 | 0.00 | 0.00 | 0.00 | 38 | 1010.2 |
| 20260503011003 | 56 | 285 | 1.0 | 2.0 | 0.00 | 0.00 | 0.00 | 37 | 1010.4 |
| 20260503010459 | 56 | 307 | 2.0 | 2.0 | 0.00 | 0.00 | 0.00 | 38 | 1010.0 |
| 20260503005957 | 57 | 309 | 2.0 | 3.0 | 0.00 | 0.00 | 0.00 | 37 | 1010.2 |
| 20260503005454 | 57 | 294 | 3.0 | 4.0 | 0.00 | 0.00 | 0.00 | 37 | 1010.0 |
| 20260503004950 | 57 | 333 | 4.0 | 6.0 | 0.00 | 0.00 | 0.00 | 37 | 1009.9 |
| 20260503004447 | 57 | 316 | 1.0 | 1.0 | 0.00 | 0.00 | 0.00 | 37 | 1009.9 |
| 20260503003945 | 57 | 298 | 3.0 | 3.0 | 0.00 | 0.00 | 0.00 | 37 | 1009.7 |
| 20260503003441 | 57 | 327 | 2.0 | 2.0 | 0.00 | 0.00 | 0.00 | 38 | 1009.8 |
| 20260503002938 | 57 | 267 | 3.0 | 4.0 | 0.00 | 0.00 | 0.00 | 37 | 1009.4 |
| 20260503002436 | 57 | 165 | 5.0 | 8.0 | 0.00 | 0.00 | 0.00 | 38 | 1009.7 |
| 20260503001932 | 57 | 320 | 5.0 | 6.0 | 0.00 | 0.00 | 0.00 | 37 | 1009.5 |
| 20260503001429 | 58 | 295 | 2.0 | 3.0 | 0.00 | 0.00 | 0.00 | 37 | 1009.6 |
| 20260503000926 | 58 | 287 | 5.0 | 6.0 | 0.00 | 0.00 | 0.00 | 36 | 1009.5 |
| 20260503000423 | 58 | 287 | 3.0 | 3.0 | 0.00 | 0.00 | 0.00 | 36 | 1009.4 |
| 20260502235920 | 58 | 274 | 2.0 | 2.0 | 0.00 | 0.00 | 0.00 | 36 | 1009.5 |